Voltar ao catálogo

COSMOS 684

AtivoMilitarLEO
NORAD 7442·PAYLOAD·🇷🇺 Russia

Lançado Sep 19, 1974 de Plesetsk Cosmodrome

Loading…

Próximas Passagens (próximas 24 horas)

TLE

AtualizadoSource: Space-Track

Época: Sep 14, 2026, 13:48 UTC

1 07442U 74072H   26257.57544860  .00000002  00000-0  10733-3 0  9997
2 07442  74.0350 303.1724 0032104  44.3494 109.8044 12.55723796382967

Acompanhe COSMOS 684 em tempo real com AllMySat

Download on the App Store